Tracking 30703 objects as of 12-Jun-2025
HD Live streaming from Space Station
objects crossing your sky now

ARIANE 1 DEB

Track ARIANE 1 DEB now!
10-day predictions


NORAD ID: 17429
Int'l Code: 1986-019FQ
Perigee: 619.0 km
Apogee: 678.6 km
Inclination: 99.1 °
Period: 97.6 minutes
Semi major axis: 7019 km
RCS: 0.0335 m2 (small)
Launch date: February 22, 1986
Source: France (FR)
Launch site: FRENCH GUIANA (FRGUI)

Note: This is SATELLITE DEBRIS
Your satellite tracking list
Your tracking list is empty




NASA's NSSDC Master Catalog

Two Line Element Set (TLE):
1 17429U 86019FQ  25161.57823328  .00005338  00000-0  77112-3 0  9990
2 17429  99.0786  24.8405 0042391  19.1963 341.0829 14.76102424 17078
Source of the keplerian elements: AFSPC